Theta_e
312 311 310 310 309 309 308 307 307 307 307 308 311 312 311 310 311 310 310 311 311 312 314 314 315 316 316 318 318 320 322 325
312 311 310 310 309 308 307 307 306 307 307 307 308 309 310 308 307 308 308 308 307 306 307 308 308 309 311 312 312 313 315 318
312 311 310 309 307 307 307 306 305 305 305 306 308 308 309 308 307 306 305 305 305 304 303 304 304 306 307 307 308 309 311 313
312 310 308 306 306 305 305 304 304 303 303 304 305 307 307 307 307 306 305 304 303 302 301 302 302 303 303 304 305 305 307 308
311 308 306 306 305 304 304 304 303 302 301 301 302 302 303 302 303 302 303 303 301 300 299 299 300 300 301 301 302 302 303 305
309 306 306 305 304 304 304 303 302 301 300 299 299 299 299 299 298 298 298 298 298 296 296 297 297 298 298 298 299 300 301 303
307 306 306 304 303 302 301 302 300 299 298 298 297 297 297 297 296 296 294 295 294 294 293 294 295 295 296 296 297 298 299 301
307 307 305 303 302 300 300 300 299 297 296 296 295 295 295 295 294 293 293 293 292 292 292 292 292 293 294 294 295 297 297 297
308 306 305 302 301 298 298 298 298 296 295 295 294 293 293 293 292 292 292 291 291 291 291 291 292 292 292 293 294 294 294 295
307 305 303 302 299 297 296 296 296 295 294 294 293 293 292 292 291 291 291 290 290 290 290 291 291 291 291 292 292 291 291 291
306 305 303 300 298 296 295 295 294 294 293 293 293 292 292 291 291 290 290 289 289 290 290 290 289 289 291 290 291 290 290 289
306 305 302 300 298 296 295 294 294 293 293 292 292 292 292 291 290 290 290 289 289 289 290 289 288 288 289 291 290 289 289 289
306 305 302 299 298 296 294 294 294 293 293 293 293 293 292 291 290 290 289 289 289 289 289 288 287 286 287 289 290 290 289 289
307 304 301 299 297 296 294 294 294 294 294 293 292 291 290 290 289 289 288 288 288 288 287 286 284 284 285 287 288 288 288 287
307 304 301 298 296 295 294 294 293 293 293 292 291 290 289 289 288 288 287 287 286 287 285 283 282 282 283 285 287 286 285 285
307 304 300 297 296 295 294 294 293 293 292 290 289 288 288 287 287 286 286 285 285 285 284 282 280 280 282 283 285 284 284 282
306 304 299 296 295 294 294 293 292 291 290 289 288 287 286 285 285 285 284 283 282 282 282 281 279 279 281 282 284 284 283 281
305 302 298 296 295 294 293 292 291 289 288 287 286 285 284 284 284 283 282 282 281 280 280 280 278 278 279 281 283 282 281 280
303 299 296 294 293 293 292 291 289 288 286 285 285 284 284 283 282 282 282 281 280 280 279 278 278 278 278 279 281 281 281 279
Wind_Speed
5 6 9 11 13 14 16 18 20 17 19 17 12 12 12 13 16 17 18 16 14 13 11 13 14 13 15 17 18 17 18 22
5 5 8 10 14 15 17 18 20 20 17 16 15 14 11 14 13 15 18 18 18 17 16 15 15 14 16 16 18 18 19 19
7 5 8 11 11 14 15 17 18 20 19 16 14 11 8 11 12 17 17 17 17 15 17 16 16 14 13 15 16 17 15 15
6 8 9 8 8 10 11 14 16 19 19 17 17 13 12 15 15 16 16 17 17 17 16 16 15 14 13 14 15 15 15 15
7 6 5 6 8 9 9 10 13 15 16 17 17 16 13 15 16 13 15 15 16 17 19 18 16 15 14 14 13 14 14 15
7 5 5 7 8 9 11 11 14 14 15 15 15 14 13 13 15 14 14 14 14 19 17 18 17 16 15 15 15 15 14 15
7 6 6 6 8 9 9 10 12 13 13 14 14 14 14 14 15 14 15 14 16 17 18 16 16 17 16 16 15 14 14 15
8 7 7 6 9 9 9 10 11 12 12 12 13 13 12 12 14 14 15 15 16 18 18 17 17 17 17 16 15 14 14 16
7 7 5 6 10 8 9 9 10 11 11 11 12 12 11 12 12 13 13 15 15 17 17 17 17 16 16 15 14 13 14 14
9 9 7 6 8 7 8 7 9 9 9 9 10 11 12 12 12 12 13 15 14 16 17 18 19 18 19 17 15 17 17 19
12 12 11 9 7 8 7 7 7 7 8 9 9 11 11 11 11 13 13 14 16 17 20 19 21 22 23 22 18 20 18 18
12 12 11 10 9 9 7 6 6 7 7 8 9 9 10 10 11 12 12 13 15 17 17 19 22 23 25 20 17 16 17 17
12 15 15 12 9 8 8 6 6 6 6 6 7 7 9 10 10 11 12 14 16 18 20 21 23 23 23 24 19 21 21 21
13 14 14 12 10 8 8 6 5 5 6 7 8 8 11 11 11 12 14 16 17 19 22 23 26 26 23 24 19 20 21 22
13 11 13 12 10 9 9 8 5 6 7 8 8 9 10 10 11 12 14 16 17 19 22 24 25 25 24 23 20 19 20 22
13 11 13 14 12 10 9 9 8 7 8 8 8 9 10 11 12 13 14 16 18 19 20 23 25 27 23 22 16 18 21 23
14 12 17 15 13 12 10 10 9 9 9 9 9 10 10 12 12 14 15 17 18 19 21 21 26 26 23 23 18 20 22 24
14 13 16 16 13 12 11 11 11 11 11 10 10 10 11 12 12 13 15 17 18 21 21 20 25 29 27 24 18 20 22 21
15 18 19 17 13 13 12 12 13 12 11 11 10 10 12 12 12 14 14 16 18 20 21 22 23 29 30 25 21 21 20 24
Wind_Direction
79 45 36 43 36 34 29 24 20 22 23 20 18 15 18 36 35 23 23 19 357 358 354 351 352 357 347 344 341 329 330 325
111 79 68 53 42 32 29 27 23 20 19 21 11 5 19 17 20 27 26 13 6 11 12 6 359 2 351 347 334 333 327 331
125 91 68 52 37 27 28 24 21 19 10 9 3 6 29 21 30 21 14 19 13 15 12 4 359 356 356 352 348 338 329 348
133 101 62 37 36 28 25 22 19 19 11 11 9 11 12 20 12 18 13 17 15 13 10 3 359 356 355 350 350 350 329 332
102 84 82 61 53 46 37 32 33 17 14 14 14 10 12 2 10 355 4 12 13 5 9 4 359 355 352 348 342 342 333 328
114 128 111 86 63 49 41 42 45 32 24 21 17 12 3 356 2 359 0 358 2 9 3 1 359 355 345 340 340 339 337 328
147 143 122 92 72 55 45 39 45 33 24 22 20 11 9 5 3 3 2 359 358 357 354 2 357 353 346 341 342 338 339 333
164 147 130 93 80 54 45 43 45 37 32 28 23 17 13 13 13 6 4 7 3 358 358 359 359 353 351 345 343 348 353 349
155 141 123 105 88 61 47 40 45 35 31 30 31 29 23 25 19 17 15 14 7 359 2 5 5 7 6 4 5 6 1 6
158 155 146 128 93 81 61 46 49 43 40 36 36 37 36 31 31 26 27 23 15 12 12 10 17 19 21 18 18 18 19 18
173 171 154 126 117 104 87 68 56 51 51 46 48 42 37 36 36 33 31 25 23 22 19 17 24 26 28 23 20 24 25 28
178 161 156 139 134 120 104 91 78 66 57 51 52 50 45 39 37 36 33 31 26 21 22 25 28 26 25 22 25 24 29 29
178 175 158 147 139 126 117 112 93 87 87 66 56 51 52 43 38 37 33 36 30 26 26 28 27 28 30 20 23 26 27 25
189 166 158 150 139 140 129 119 111 102 88 76 60 50 52 43 37 38 37 37 32 34 32 31 30 25 27 19 27 26 27 27
187 171 154 143 152 150 142 136 125 106 88 76 66 58 56 52 45 43 42 42 39 37 38 32 30 25 23 15 28 28 29 28
182 172 146 145 155 156 147 145 138 122 106 94 77 70 61 58 52 50 48 46 40 40 41 37 30 25 16 11 22 34 31 30
176 172 151 159 166 162 159 148 127 114 104 94 83 73 66 61 57 56 53 52 48 43 39 43 32 25 19 18 35 37 37 36
174 155 157 151 164 153 160 140 130 119 111 100 90 82 74 66 63 62 60 57 55 51 43 40 34 28 23 25 43 45 42 42
162 140 134 142 153 156 158 140 124 117 104 95 90 87 82 77 74 69 68 63 58 53 47 43 38 30 27 27 34 39 43 41